IBE61G EGKK-DTNH

Flight info

Callsign IBE61G
Flight time N/A
Altitude 37000
Route SFD Y47 BENBO UL612 OGULO DCT OKASI DCT OKEKO DCT MOU DCT MADIV DCT MOKIP DCT TUFTA DCT KOGAS DCT MEDAM DCT NITAM DCT MOGBO DCT ENOBA DCT OLETI DCT EVROG DCT PODOX DCT VELAD DCT ABKON DCT PININ DCT TUNEX UM738 DIDON G727 ATLEL ATLEL1W
Aircraft A320/M-SDE3FGHIRWY/LB1

Departure

Time 2026-05-04 18:24
Airport London Gatwick Airport (EGKK)

Arrival

Time N/A
Airport Enfidha - Hammamet International Airport (DTNH)
Time Latitude Longitude Altitude Speed Heading
2026-05-04 17:46 51.15782 -0.17884 204 ft 0 kts 347°
2026-05-04 17:59 51.15776 -0.17882 209 ft 2 kts 348°
2026-05-04 18:00 51.15760 -0.17877 212 ft 2 kts 345°
2026-05-04 18:00 51.15745 -0.17869 207 ft 2 kts 331°
2026-05-04 18:00 51.15735 -0.17860 216 ft 2 kts 327°
2026-05-04 18:00 51.15723 -0.17833 212 ft 2 kts 289°
2026-05-04 18:01 51.15720 -0.17807 210 ft 2 kts 261°
2026-05-04 18:01 51.15721 -0.17796 211 ft 0 kts 255°
2026-05-04 18:03 51.15721 -0.17799 211 ft 2 kts 255°
2026-05-04 18:04 51.15717 -0.17822 212 ft 3 kts 256°
2026-05-04 18:04 51.15713 -0.17850 210 ft 3 kts 258°
2026-05-04 18:04 51.15678 -0.18108 204 ft 13 kts 259°
2026-05-04 18:05 51.15658 -0.18263 210 ft 14 kts 258°
2026-05-04 18:05 51.15613 -0.18352 204 ft 9 kts 180°
2026-05-04 18:05 51.15531 -0.18327 204 ft 12 kts 168°
2026-05-04 18:05 51.15500 -0.18316 212 ft 0 kts 167°
2026-05-04 18:06 51.15496 -0.18314 210 ft 5 kts 167°
2026-05-04 18:06 51.15428 -0.18290 211 ft 10 kts 167°
2026-05-04 18:07 51.15358 -0.18265 208 ft 13 kts 167°
2026-05-04 18:07 51.15254 -0.18229 204 ft 15 kts 167°
2026-05-04 18:07 51.15186 -0.18305 211 ft 14 kts 265°
2026-05-04 18:07 51.15166 -0.18475 210 ft 23 kts 257°
2026-05-04 18:08 51.15127 -0.18757 212 ft 27 kts 257°
2026-05-04 18:08 51.15085 -0.19056 212 ft 28 kts 257°
2026-05-04 18:08 51.15048 -0.19254 206 ft 13 kts 225°
2026-05-04 18:08 51.14975 -0.19277 211 ft 12 kts 212°
2026-05-04 18:09 51.14893 -0.19786 206 ft 31 kts 258°
2026-05-04 18:09 51.14823 -0.20301 212 ft 6 kts 257°
2026-05-04 18:10 51.14823 -0.20302 212 ft 0 kts 257°
2026-05-04 18:10 51.14812 -0.20380 212 ft 11 kts 257°
2026-05-04 18:10 51.14797 -0.20489 214 ft 9 kts 257°
2026-05-04 18:10 51.14783 -0.20588 210 ft 13 kts 257°
2026-05-04 18:11 51.14763 -0.20736 206 ft 14 kts 257°
2026-05-04 18:11 51.14743 -0.20873 206 ft 12 kts 257°
2026-05-04 18:11 51.14728 -0.20987 209 ft 10 kts 258°
2026-05-04 18:11 51.14713 -0.21092 206 ft 9 kts 257°
2026-05-04 18:12 51.14701 -0.21179 204 ft 6 kts 257°
2026-05-04 18:12 51.14698 -0.21200 204 ft 0 kts 257°
2026-05-04 18:18 51.14695 -0.21222 209 ft 5 kts 258°
2026-05-04 18:18 51.14690 -0.21263 208 ft 0 kts 258°
2026-05-04 18:19 51.14690 -0.21265 208 ft 2 kts 258°
2026-05-04 18:20 51.14678 -0.21310 207 ft 5 kts 235°
2026-05-04 18:20 51.14653 -0.21335 207 ft 4 kts 193°
2026-05-04 18:20 51.14625 -0.21329 204 ft 4 kts 169°
2026-05-04 18:20 51.14617 -0.21327 204 ft 0 kts 168°
2026-05-04 18:23 51.14616 -0.21326 204 ft 0 kts 168°
2026-05-04 18:23 51.14608 -0.21324 215 ft 8 kts 168°
2026-05-04 18:23 51.14525 -0.21230 214 ft 18 kts 114°
2026-05-04 18:23 51.14541 -0.21011 215 ft 33 kts 77°
2026-05-04 18:24 51.14659 -0.20159 210 ft 121 kts 77°
2026-05-04 18:24 51.14889 -0.18575 570 ft 158 kts 76°
2026-05-04 18:24 51.15150 -0.16852 1401 ft 161 kts 76°
2026-05-04 18:24 51.15401 -0.15024 2048 ft 179 kts 76°